TimeEDT,TemperatureF,Dew PointF,Humidity,Sea Level PressureIn,VisibilityMPH,Wind Direction,Wind SpeedMPH,Gust SpeedMPH,PrecipitationIn,Events,Conditions,WindDirDegrees,DateUTC
12:35 AM,46.6,39.7,77,30.21,10.0,Calm,Calm,-,N/A,,Clear,0,2012-10-14 04:35:00
1:15 AM,55.9,41.2,58,30.20,10.0,SSE,5.8,-,N/A,,Scattered Clouds,150,2012-10-14 05:15:00
1:35 AM,55.9,41.5,58,30.19,10.0,Calm,Calm,-,N/A,,Clear,0,2012-10-14 05:35:00
1:55 AM,56.1,41.7,58,30.19,10.0,South,9.2,-,N/A,,Clear,170,2012-10-14 05:55:00
2:15 AM,53.1,41.2,64,30.19,10.0,Calm,Calm,-,N/A,,Clear,0,2012-10-14 06:15:00
2:35 AM,48.9,41.9,77,30.18,10.0,Calm,Calm,-,N/A,,Clear,0,2012-10-14 06:35:00
2:55 AM,50.2,41.4,72,30.18,10.0,Calm,Calm,-,N/A,,Clear,0,2012-10-14 06:55:00
3:15 AM,53.4,41.5,64,30.18,10.0,South,5.8,-,N/A,,Clear,170,2012-10-14 07:15:00
3:35 AM,52.3,41.9,68,30.17,10.0,Calm,Calm,-,N/A,,Clear,0,2012-10-14 07:35:00
3:55 AM,52.7,41.2,65,30.17,10.0,Calm,Calm,-,N/A,,Clear,0,2012-10-14 07:55:00
4:15 AM,44.2,38.8,81,30.17,10.0,WNW,4.6,-,N/A,,Clear,290,2012-10-14 08:15:00
4:35 AM,44.8,40.1,84,30.18,10.0,Calm,Calm,-,N/A,,Clear,0,2012-10-14 08:35:00
4:55 AM,46.0,41.2,83,30.18,10.0,Calm,Calm,-,N/A,,Clear,0,2012-10-14 08:55:00
5:15 AM,45.1,40.3,83,30.18,10.0,Calm,Calm,-,N/A,,Clear,0,2012-10-14 09:15:00
5:35 AM,44.8,40.6,85,30.18,10.0,Calm,Calm,-,N/A,,Mostly Cloudy,0,2012-10-14 09:35:00
5:55 AM,49.1,43.5,81,30.18,10.0,South,5.8,-,N/A,,Mostly Cloudy,180,2012-10-14 09:55:00
6:15 AM,51.3,41.9,70,30.18,10.0,Calm,Calm,-,N/A,,Scattered Clouds,0,2012-10-14 10:15:00
6:35 AM,50.9,42.4,73,30.18,10.0,Calm,Calm,-,N/A,,Clear,0,2012-10-14 10:35:00
7:15 AM,46.6,42.3,85,30.18,10.0,Calm,Calm,-,N/A,,Clear,0,2012-10-14 11:15:00
7:35 AM,45.5,41.9,87,30.19,10.0,Calm,Calm,-,N/A,,Clear,0,2012-10-14 11:35:00
7:55 AM,45.9,42.4,88,30.19,10.0,Calm,Calm,-,N/A,,Scattered Clouds,0,2012-10-14 11:55:00
8:15 AM,47.8,44.6,89,30.20,10.0,Calm,Calm,-,N/A,,Mostly Cloudy,0,2012-10-14 12:15:00
8:35 AM,50.0,46.2,87,30.19,10.0,Calm,Calm,-,N/A,,Overcast,0,2012-10-14 12:35:00
8:55 AM,52.9,46.6,79,30.19,10.0,Calm,Calm,-,N/A,,Mostly Cloudy,0,2012-10-14 12:55:00
9:15 AM,54.7,46.9,75,30.19,10.0,Calm,Calm,-,N/A,,Mostly Cloudy,0,2012-10-14 13:15:00
9:35 AM,59.5,46.8,63,30.18,10.0,Calm,Calm,-,N/A,,Scattered Clouds,0,2012-10-14 13:35:00
9:55 AM,62.1,47.1,58,30.17,10.0,Calm,Calm,-,N/A,,Clear,0,2012-10-14 13:55:00
10:15 AM,63.7,48.0,57,30.17,10.0,Calm,Calm,-,N/A,,Clear,0,2012-10-14 14:15:00
10:35 AM,66.4,48.2,52,30.16,10.0,South,6.9,-,N/A,,Mostly Cloudy,170,2012-10-14 14:35:00
10:55 AM,67.5,47.8,49,30.15,10.0,South,9.2,-,N/A,,Mostly Cloudy,170,2012-10-14 14:55:00
11:15 AM,69.3,49.6,50,30.14,10.0,SSE,9.2,-,N/A,,Mostly Cloudy,160,2012-10-14 15:15:00
11:35 AM,70.9,49.1,46,30.14,10.0,South,8.1,-,N/A,,Scattered Clouds,180,2012-10-14 15:35:00
11:55 AM,72.0,50.0,46,30.12,10.0,SE,4.6,-,N/A,,Scattered Clouds,140,2012-10-14 15:55:00
12:15 PM,73.9,50.4,43,30.11,10.0,SSW,8.1,-,N/A,,Clear,200,2012-10-14 16:15:00
12:35 PM,74.8,51.1,43,30.10,10.0,SSE,4.6,-,N/A,,Clear,150,2012-10-14 16:35:00
12:55 PM,76.6,51.4,41,30.08,10.0,Calm,Calm,-,N/A,,Scattered Clouds,0,2012-10-14 16:55:00
1:15 PM,76.5,50.4,40,30.07,10.0,Calm,Calm,-,N/A,,Mostly Cloudy,0,2012-10-14 17:15:00
1:35 PM,78.6,51.8,39,30.05,10.0,Calm,Calm,-,N/A,,Scattered Clouds,0,2012-10-14 17:35:00
1:55 PM,80.2,51.8,37,30.03,10.0,Calm,Calm,-,N/A,,Clear,0,2012-10-14 17:55:00
2:15 PM,79.7,52.9,39,30.02,10.0,SE,9.2,-,N/A,,Clear,140,2012-10-14 18:15:00
2:35 PM,80.1,52.9,39,30.00,10.0,SE,11.5,-,N/A,,Clear,140,2012-10-14 18:35:00
2:55 PM,78.6,52.5,40,29.99,10.0,SE,15.0,-,N/A,,Clear,130,2012-10-14 18:55:00
3:15 PM,78.8,52.7,40,29.99,10.0,SE,9.2,-,N/A,,Clear,130,2012-10-14 19:15:00
3:35 PM,77.7,52.7,42,29.98,10.0,SE,12.7,-,N/A,,Clear,140,2012-10-14 19:35:00
3:55 PM,76.1,52.5,44,29.98,10.0,SE,13.8,18.4,N/A,,Clear,130,2012-10-14 19:55:00
4:15 PM,74.8,52.3,45,29.97,10.0,ESE,11.5,16.1,N/A,,Clear,120,2012-10-14 20:15:00
4:35 PM,74.5,52.5,46,29.96,10.0,ESE,12.7,-,N/A,,Clear,120,2012-10-14 20:35:00
4:55 PM,74.5,53.6,48,29.96,10.0,SE,6.9,-,N/A,,Clear,140,2012-10-14 20:55:00
5:15 PM,75.6,51.8,43,29.96,10.0,South,6.9,-,N/A,,Clear,190,2012-10-14 21:15:00
5:35 PM,75.2,50.2,41,29.96,10.0,SSW,12.7,19.6,N/A,,Clear,200,2012-10-14 21:35:00
5:55 PM,74.1,50.2,43,29.96,10.0,SSW,10.4,23.0,N/A,,Clear,200,2012-10-14 21:55:00
6:15 PM,73.8,50.5,44,29.96,10.0,South,12.7,19.6,N/A,,Clear,190,2012-10-14 22:15:00
6:35 PM,72.5,50.4,46,29.95,10.0,South,10.4,17.3,N/A,,Clear,190,2012-10-14 22:35:00
6:55 PM,71.8,50.9,48,29.95,10.0,South,8.1,17.3,N/A,,Clear,180,2012-10-14 22:55:00
7:15 PM,71.6,51.1,48,29.94,10.0,Calm,Calm,-,N/A,,Clear,0,2012-10-14 23:15:00
7:35 PM,70.3,51.1,50,29.95,10.0,South,3.5,-,N/A,,Clear,190,2012-10-14 23:35:00
7:55 PM,69.4,51.3,52,29.95,10.0,Calm,Calm,-,N/A,,Clear,0,2012-10-14 23:55:00
8:15 PM,68.5,51.3,54,29.95,10.0,South,5.8,-,N/A,,Clear,180,2012-10-15 00:15:00
8:35 PM,67.3,51.3,56,29.94,10.0,South,9.2,-,N/A,,Clear,170,2012-10-15 00:35:00
8:55 PM,66.9,51.1,57,29.93,10.0,South,4.6,-,N/A,,Clear,170,2012-10-15 00:55:00
9:15 PM,66.0,50.9,58,29.93,10.0,Calm,Calm,-,N/A,,Clear,0,2012-10-15 01:15:00
9:35 PM,66.2,51.3,59,29.93,10.0,South,6.9,-,N/A,,Clear,190,2012-10-15 01:35:00
9:55 PM,66.4,51.6,59,29.93,10.0,South,6.9,-,N/A,,Clear,190,2012-10-15 01:55:00
10:15 PM,66.0,52.0,60,29.93,10.0,South,11.5,16.1,N/A,,Clear,190,2012-10-15 02:15:00
10:35 PM,66.4,52.5,61,29.93,10.0,South,8.1,-,N/A,,Clear,180,2012-10-15 02:35:00
10:55 PM,66.0,52.9,63,29.92,10.0,South,5.8,-,N/A,,Scattered Clouds,170,2012-10-15 02:55:00
11:15 PM,66.2,53.4,63,29.92,10.0,South,6.9,-,N/A,,Scattered Clouds,190,2012-10-15 03:15:00
11:35 PM,66.0,53.4,64,29.91,10.0,South,9.2,-,N/A,,Clear,180,2012-10-15 03:35:00
11:55 PM,66.4,54.0,64,29.91,10.0,South,9.2,-,N/A,,Scattered Clouds,180,2012-10-15 03:55:00